Temperature
8 9 9 10 10 10 10 11 11 11 11 12 12 12 12 12 13 13 13 13 14 14 14 14 14 14 14 14 14 15 15 16 16 16 16 16 16 16 17 17 17 17 17
8 9 10 10 10 10 10 10 10 10 11 11 11 11 12 12 12 12 12 12 13 13 13 14 14 14 14 14 14 14 15 15 16 16 16 16 16 16 16 17 17 17 17
8 9 10 10 10 10 10 10 10 10 10 10 10 10 10 11 11 11 11 12 12 12 13 13 13 13 14 14 14 14 14 14 15 15 15 16 16 16 16 16 17 17 17
8 9 9 9 10 10 10 10 9 9 9 9 8 8 8 9 9 10 10 11 11 11 11 12 12 13 13 13 14 14 14 14 14 15 15 15 15 16 16 16 16 17 17
8 9 9 9 9 9 9 8 8 7 7 7 7 6 6 7 7 7 8 9 9 10 10 9 10 11 12 13 13 13 14 14 14 14 14 15 15 15 15 16 16 16 17
9 9 9 9 8 8 7 7 6 6 5 5 5 4 5 5 6 5 6 6 7 7 8 7 8 9 11 12 12 13 13 13 14 13 14 14 15 15 15 15 16 16 16
9 9 9 8 7 7 6 6 6 5 5 4 4 4 4 5 5 4 5 5 5 6 6 6 7 8 8 10 11 12 12 13 13 13 13 14 14 15 15 15 15 16 16
8 8 8 7 7 6 6 5 5 4 4 4 4 4 4 4 4 4 4 4 4 4 4 5 6 7 7 8 9 11 11 12 13 13 13 13 13 14 14 15 15 15 16
8 7 7 6 6 5 5 4 4 3 3 3 3 3 3 4 4 3 4 3 3 3 3 4 4 5 6 7 8 8 10 11 11 12 12 13 13 13 14 14 14 15 15
7 6 5 5 5 4 4 4 3 3 2 3 3 3 3 3 3 3 3 3 3 3 3 3 3 4 5 6 6 7 8 9 10 11 11 12 12 13 13 14 14 14 15
6 5 5 4 4 4 3 3 3 3 2 2 3 3 3 3 3 3 2 2 2 2 2 3 3 3 4 4 5 6 6 8 9 10 10 11 11 12 13 13 13 14 14
4 4 4 4 4 3 3 3 3 3 2 2 2 2 2 2 2 2 2 2 2 2 2 2 2 2 3 3 4 5 5 6 7 8 9 10 10 11 12 12 13 13 14
3 3 4 3 3 3 3 2 2 2 2 2 1 1 1 1 1 1 1 1 1 1 1 2 2 2 2 2 3 3 4 4 5 7 8 9 9 10 11 12 12 13 14
3 3 3 3 3 2 2 2 1 1 1 0 0 -0 -0 -0 -0 -0 -0 -0 -0 -0 -0 -0 0 1 1 1 1 2 3 3 4 5 6 8 8 9 10 11 12 12 13
3 3 3 2 2 1 1 1 0 0 -0 -0 -1 -1 -1 -1 -2 -2 -2 -2 -2 -2 -2 -1 -1 -1 -0 0 1 1 1 2 3 3 4 6 7 8 9 9 11 12 12
3 2 2 1 1 1 0 0 -0 -1 -1 -1 -1 -2 -2 -2 -3 -3 -3 -4 -4 -4 -4 -3 -3 -3 -2 -1 -1 -0 0 1 2 2 3 4 6 7 8 8 9 11 12
2 2 1 1 0 0 -0 -1 -1 -1 -2 -2 -2 -3 -3 -4 -4 -4 -5 -5 -5 -5 -5 -5 -4 -4 -3 -3 -2 -1 -1 0 1 1 2 3 4 5 7 8 8 10 11
1 1 0 -0 -0 -0 -1 -1 -1 -2 -2 -3 -4 -4 -5 -5 -6 -6 -6 -6 -6 -6 -6 -6 -6 -5 -5 -4 -3 -3 -2 -1 -0 0 1 1 3 4 5 7 8 9 10
0 -0 -0 -0 -0 -1 -1 -1 -2 -2 -3 -4 -4 -5 -6 -6 -7 -7 -7 -7 -8 -8 -8 -8 -7 -7 -7 -6 -5 -4 -3 -2 -1 -1 -1 -0 0 1 3 5 7 8 9
-1 -1 -1 -1 -1 -1 -1 -2 -2 -3 -4 -5 -5 -6 -6 -7 -7 -8 -8 -8 -9 -9 -9 -9 -9 -8 -8 -8 -7 -5 -4 -3 -2 -2 -3 -2 -2 -1 1 3 5 7 8
-1 -1 -1 -1 -1 -2 -2 -3 -3 -3 -4 -5 -6 -7 -7 -8 -8 -9 -9 -9 -10 -10 -10 -10 -10 -10 -9 -9 -8 -6 -4 -4 -4 -5 -4 -3 -3 -2 -1 1 3 5 7
-1 -1 -1 -2 -2 -3 -3 -4 -5 -5 -5 -6 -7 -7 -8 -8 -9 -9 -10 -10 -11 -11 -11 -11 -11 -11 -11 -11 -12 -11 -10 -8 -6 -5 -4 -5 -5 -3 -2 -1 1 3 5
-1 -1 -2 -2 -3 -3 -4 -5 -5 -5 -6 -7 -8 -8 -9 -9 -10 -10 -11 -11 -12 -12 -12 -12 -12 -12 -13 -12 -12 -13 -11 -10 -10 -8 -7 -7 -6 -5 -4 -2 -0 1 3
-1 -2 -2 -3 -3 -4 -5 -5 -6 -7 -8 -8 -9 -9 -9 -10 -10 -11 -12 -12 -13 -13 -13 -13 -14 -13 -13 -13 -13 -12 -12 -11 -11 -10 -9 -8 -7 -6 -5 -3 -2 0 2
-2 -2 -3 -3 -4 -5 -5 -6 -7 -8 -9 -9 -9 -9 -10 -10 -11 -12 -12 -13 -13 -14 -14 -14 -14 -14 -14 -14 -13 -13 -12 -12 -11 -10 -10 -9 -8 -7 -6 -4 -3 -1 0
-2 -2 -3 -3 -4 -5 -6 -7 -8 -9 -9 -9 -9 -10 -11 -12 -12 -13 -13 -14 -14 -14 -14 -14 -14 -14 -14 -14 -13 -13 -13 -12 -11 -11 -10 -10 -9 -8 -6 -5 -4 -2 -1
Wind_Speed
12 24 28 30 30 30 31 31 31 31 31 31 31 31 31 31 31 31 31 31 31 30 30 29 28 27 27 25 22 19 17 16 14 12 11 10 9 7 6 6 6 6 8
17 23 27 29 29 30 30 30 30 30 30 30 30 30 30 30 30 30 31 31 30 30 30 29 28 28 28 27 26 23 20 18 16 14 12 11 10 10 9 8 9 8 9
20 23 25 28 29 29 29 29 29 29 29 29 29 29 29 30 30 30 30 30 30 29 29 29 29 29 28 28 27 26 23 20 18 16 14 10 10 11 12 11 11 10 11
19 22 25 28 28 28 29 29 29 30 29 29 29 28 28 29 30 30 31 30 30 29 29 28 28 29 29 29 28 27 26 24 21 18 13 10 10 12 13 13 13 13 13
19 23 25 28 28 27 28 28 28 28 28 28 28 28 28 29 29 29 30 31 30 30 29 28 28 28 29 29 28 28 27 26 25 19 15 12 11 14 15 15 14 15 15
19 23 25 27 27 26 26 27 27 27 27 27 27 27 28 29 29 29 30 30 30 30 29 29 29 28 28 29 28 28 28 27 24 18 16 14 12 14 17 18 17 17 17
17 22 25 27 27 26 26 28 28 28 27 27 27 27 27 28 29 28 29 29 29 29 29 30 30 29 28 28 28 28 28 28 22 19 17 15 14 17 18 20 20 19 21
17 21 24 27 27 26 26 27 28 27 27 26 27 27 28 29 29 28 29 29 28 28 28 29 30 30 29 28 28 28 28 27 21 19 19 17 17 18 19 20 21 21 21
18 21 24 25 24 24 24 25 27 26 26 25 26 27 27 28 29 28 29 29 28 28 28 29 29 29 29 28 28 28 28 26 20 19 19 17 19 20 20 21 21 23 22
16 18 21 23 22 23 22 24 26 25 25 24 24 25 26 26 27 27 28 28 28 28 28 29 29 29 29 28 28 28 27 22 21 21 17 18 23 24 22 21 21 22 23
11 13 19 20 21 22 20 20 22 21 22 21 21 23 22 21 22 23 26 27 27 27 28 28 28 28 28 26 27 27 23 18 23 18 17 21 26 26 25 23 21 21 23
10 9 15 18 20 20 18 17 20 18 20 20 20 22 21 20 20 21 23 25 26 27 27 27 27 25 23 21 23 24 18 21 18 17 18 25 27 27 27 26 23 21 22
7 7 10 16 17 19 18 16 18 18 18 18 20 21 21 19 19 19 18 19 21 23 22 23 22 20 20 20 20 19 19 19 17 18 20 26 27 28 28 27 25 22 21
6 7 9 15 18 19 18 17 17 17 16 16 17 19 19 16 17 18 16 17 17 18 19 19 18 20 20 21 20 19 19 18 18 18 20 27 29 29 28 27 25 24 22
6 8 9 13 18 18 18 17 16 17 16 17 17 18 19 16 15 16 16 16 17 18 18 18 18 19 19 19 18 19 19 20 19 19 20 28 29 28 27 26 25 24 23
6 8 12 11 17 17 16 16 15 17 17 17 17 19 19 18 17 17 15 15 16 18 18 18 18 16 16 16 16 18 19 20 18 20 21 24 26 26 26 25 24 23 23
6 7 9 11 15 15 15 15 16 16 16 16 16 18 19 19 18 17 14 14 17 19 19 18 16 15 13 13 13 16 16 17 19 21 21 19 19 22 23 23 23 23 22
6 6 8 11 12 14 14 16 16 17 17 16 17 17 18 18 19 17 14 13 18 18 17 14 9 11 11 12 13 13 13 14 17 19 18 17 17 16 18 22 23 21 20
5 6 6 10 11 13 15 16 16 16 16 16 17 16 17 18 19 18 14 14 18 15 14 13 9 11 12 13 14 13 12 12 13 14 13 14 15 15 15 20 23 22 20
4 5 5 8 10 13 13 13 12 12 14 15 16 17 19 18 19 18 14 15 17 12 7 9 10 10 10 12 15 14 13 14 12 9 9 10 11 13 17 18 18 18 21
4 6 6 7 8 10 7 7 7 8 6 11 14 18 19 19 19 18 14 15 15 8 9 10 10 11 10 10 11 12 11 11 10 5 7 7 7 11 16 17 17 16 15
5 6 7 8 7 10 8 8 7 7 6 11 15 17 18 19 19 18 16 15 14 9 9 9 10 9 10 8 8 10 8 6 4 9 8 7 6 8 11 16 17 17 16
5 6 8 8 8 11 13 11 11 5 4 5 7 8 17 20 20 19 18 17 15 10 8 9 9 9 11 9 5 6 6 6 12 5 6 6 8 8 9 11 15 18 17
4 6 6 7 8 11 13 8 9 10 9 9 7 9 18 19 19 19 19 18 16 13 9 10 8 9 10 10 8 6 8 9 7 7 5 6 9 10 10 12 14 15 16
5 6 6 7 7 10 12 8 8 8 7 9 8 9 9 15 18 19 20 18 16 14 11 9 11 9 8 9 9 9 10 10 11 11 14 10 9 7 8 10 11 10 13
4 5 6 8 8 8 9 8 9 9 10 12 13 10 10 9 13 16 20 18 18 15 13 12 10 10 9 10 9 9 10 9 9 10 12 15 13 9 9 8 10 9 10
Wind_Direction
340 348 2 11 14 16 17 16 16 16 16 16 16 16 16 15 14 14 12 10 8 6 4 2 1 360 358 353 345 335 327 321 315 310 303 299 292 278 254 227 221 212 191
349 354 4 13 15 16 17 16 16 16 15 15 14 14 14 13 13 13 10 7 6 4 2 1 360 358 357 356 352 344 331 319 313 308 302 295 290 285 269 240 225 229 211
358 358 4 14 15 16 16 16 15 15 15 14 14 13 13 11 10 10 8 5 3 2 360 359 357 356 354 353 351 348 343 330 315 309 303 294 284 280 273 256 233 233 222
4 5 6 15 15 16 16 16 15 14 14 14 13 13 13 10 8 7 5 3 1 359 358 357 355 353 352 350 347 346 345 342 330 316 306 292 280 277 271 264 246 235 224
15 14 9 16 16 16 16 16 15 14 14 13 12 12 11 9 7 6 3 1 359 357 355 355 353 351 348 347 345 344 343 343 339 330 315 297 281 276 272 266 259 243 228
23 19 13 17 16 15 16 16 15 14 13 13 12 12 10 7 5 4 2 359 357 355 354 353 350 348 346 344 343 342 342 340 337 331 320 305 291 282 274 266 261 253 235
28 24 18 18 16 14 14 15 13 13 12 12 11 11 9 6 3 2 0 357 356 354 353 351 348 346 344 343 341 341 340 339 336 333 326 313 301 293 280 269 261 258 238
33 28 23 19 16 14 13 14 12 12 12 12 11 9 7 5 2 1 359 355 354 353 352 349 347 344 343 342 341 340 339 339 338 336 327 315 306 298 287 275 265 261 242
40 32 24 19 16 13 12 12 11 12 12 12 10 8 7 4 1 359 357 353 353 351 351 348 347 345 343 342 340 339 338 338 343 332 324 320 316 308 295 284 273 262 250
40 35 24 20 17 11 10 12 11 11 11 12 9 7 6 3 359 356 353 351 351 350 349 346 346 346 344 342 340 338 339 340 336 326 322 318 322 319 306 292 281 268 256
26 28 24 18 19 15 12 13 10 10 9 10 7 6 4 1 355 354 349 349 350 348 348 345 344 345 345 341 338 337 340 336 328 322 318 317 321 320 317 307 290 276 261
5 7 23 19 19 18 14 10 10 5 2 2 2 3 360 356 353 352 348 349 349 347 346 343 343 344 342 337 334 336 333 330 326 321 315 316 317 317 316 312 304 287 268
347 350 13 21 21 19 12 7 9 1 358 358 358 360 356 351 348 346 342 345 346 346 344 341 340 339 335 333 328 326 327 328 322 317 312 312 314 314 312 309 304 296 278
351 349 5 22 19 15 11 3 6 359 354 353 351 356 354 348 344 342 337 336 342 343 339 337 333 331 331 327 323 320 323 321 316 313 309 310 312 310 308 305 303 298 288
357 354 360 21 17 8 5 359 356 351 349 347 348 352 353 347 341 338 333 332 336 339 337 334 331 329 330 325 322 321 319 315 310 310 310 308 308 308 306 304 302 298 295
3 360 354 14 14 3 356 347 345 343 343 345 348 349 351 346 340 338 332 333 338 338 334 331 323 327 326 322 319 319 314 309 308 309 307 306 307 307 307 306 303 300 296
10 354 350 5 5 355 348 343 341 336 338 339 342 344 346 344 340 338 332 335 338 336 333 330 322 329 324 323 318 315 310 308 307 306 305 303 304 309 311 313 310 303 297
1 339 341 355 352 348 345 341 337 334 334 334 337 339 341 341 339 338 330 332 335 334 333 329 329 331 324 323 320 313 308 306 304 301 301 302 305 309 318 323 322 315 306
340 320 326 338 344 344 342 340 336 332 330 331 334 335 337 337 337 334 323 329 331 329 329 329 332 326 324 324 318 311 307 302 295 296 299 302 309 317 330 330 330 327 320
324 318 320 334 341 343 343 340 334 330 329 332 333 334 335 334 333 330 320 328 327 323 322 321 321 321 320 321 317 311 303 292 285 284 293 309 315 334 338 333 330 329 328
315 333 336 342 340 347 345 343 334 332 324 326 333 332 328 329 329 325 321 323 320 316 316 315 319 319 321 325 320 318 302 278 274 295 304 302 317 342 338 334 330 329 325
321 337 343 343 334 341 339 328 318 316 311 321 325 323 327 329 326 326 323 318 314 309 311 313 316 314 321 331 319 321 316 309 344 320 295 298 328 337 334 332 324 325 320
338 338 339 332 331 335 336 333 333 313 302 322 325 317 327 326 323 319 316 315 311 306 305 305 302 311 316 313 301 302 306 312 324 277 285 317 333 323 326 322 322 319 313
340 332 328 329 330 333 336 335 337 343 336 329 323 319 324 325 322 321 319 314 310 309 301 300 315 304 303 307 305 276 282 292 297 308 307 314 310 316 313 319 316 310 309
345 331 331 335 330 331 333 329 326 319 309 317 319 317 319 325 324 323 322 316 312 310 300 294 297 291 293 291 293 292 288 282 273 285 299 308 310 298 299 306 306 304 306
336 338 346 344 332 327 328 322 319 314 317 326 330 328 329 325 323 320 321 315 310 306 300 296 289 285 287 283 283 281 283 285 287 289 290 300 304 303 300 296 298 303 305
Height
1619 1616 1613 1609 1605 1601 1598 1594 1591 1588 1585 1582 1579 1577 1574 1572 1569 1567 1565 1563 1561 1559 1557 1556 1554 1552 1550 1549 1547 1546 1546 1546 1545 1545 1545 1545 1545 1545 1545 1545 1545 1545 1546
1620 1616 1613 1609 1605 1602 1598 1594 1591 1588 1584 1581 1579 1576 1573 1571 1568 1566 1564 1561 1559 1557 1555 1553 1552 1550 1548 1547 1545 1544 1543 1543 1542 1542 1542 1542 1543 1543 1543 1544 1544 1544 1545
1620 1616 1613 1609 1605 1601 1598 1594 1590 1587 1583 1580 1577 1575 1572 1570 1567 1564 1561 1559 1557 1555 1553 1551 1549 1547 1545 1544 1542 1541 1540 1540 1539 1539 1539 1539 1540 1540 1541 1542 1542 1543 1543
1620 1616 1612 1609 1605 1601 1597 1593 1589 1586 1582 1579 1575 1572 1569 1567 1564 1561 1559 1556 1553 1551 1549 1547 1545 1544 1542 1540 1539 1537 1537 1536 1535 1535 1535 1535 1536 1537 1538 1539 1540 1540 1541
1620 1616 1612 1608 1604 1600 1596 1592 1588 1584 1580 1576 1573 1570 1567 1564 1561 1558 1555 1552 1550 1547 1545 1543 1541 1539 1538 1536 1535 1533 1532 1531 1530 1530 1530 1531 1532 1533 1534 1535 1536 1537 1538
1619 1615 1611 1607 1602 1598 1594 1589 1585 1581 1578 1574 1571 1568 1565 1562 1559 1556 1552 1549 1546 1544 1541 1538 1536 1534 1533 1531 1530 1529 1527 1526 1526 1526 1526 1526 1527 1528 1529 1530 1532 1534 1535
1617 1613 1609 1604 1600 1596 1592 1588 1584 1580 1576 1572 1569 1565 1562 1559 1556 1553 1550 1547 1543 1541 1537 1534 1532 1530 1527 1525 1525 1524 1522 1521 1520 1520 1520 1521 1522 1523 1524 1525 1527 1529 1530
1615 1611 1607 1603 1598 1594 1590 1586 1581 1577 1574 1570 1567 1564 1560 1557 1554 1550 1546 1543 1540 1537 1534 1531 1528 1525 1522 1520 1519 1517 1516 1515 1514 1514 1515 1516 1517 1518 1519 1520 1521 1523 1525
1614 1610 1605 1600 1595 1591 1587 1583 1579 1575 1571 1568 1565 1562 1558 1555 1552 1548 1544 1540 1536 1533 1530 1527 1524 1521 1517 1515 1514 1512 1510 1509 1509 1509 1509 1509 1511 1512 1513 1514 1515 1517 1519
1612 1607 1602 1598 1593 1589 1585 1581 1577 1573 1569 1565 1562 1559 1556 1553 1550 1546 1541 1537 1533 1529 1525 1522 1519 1516 1513 1511 1508 1506 1503 1502 1502 1502 1502 1503 1503 1504 1506 1507 1508 1510 1512
1610 1604 1600 1595 1591 1587 1583 1579 1575 1571 1567 1563 1560 1556 1552 1549 1546 1542 1538 1534 1530 1526 1521 1518 1514 1510 1507 1505 1503 1500 1497 1496 1495 1495 1495 1496 1495 1496 1497 1500 1501 1503 1505
1607 1602 1598 1594 1590 1586 1582 1578 1574 1570 1566 1562 1558 1555 1551 1547 1542 1538 1535 1531 1527 1523 1518 1514 1510 1505 1502 1499 1497 1494 1491 1489 1488 1487 1487 1488 1488 1488 1489 1491 1493 1495 1498
1606 1602 1597 1593 1589 1586 1582 1578 1574 1570 1566 1561 1556 1552 1548 1544 1540 1535 1530 1525 1521 1518 1514 1510 1505 1501 1497 1493 1490 1488 1485 1483 1481 1480 1480 1480 1480 1480 1481 1483 1485 1488 1490
1606 1602 1598 1594 1590 1586 1582 1577 1573 1568 1563 1558 1553 1548 1543 1539 1535 1531 1526 1521 1517 1512 1508 1504 1501 1496 1493 1489 1486 1482 1480 1477 1475 1473 1472 1472 1472 1473 1474 1475 1476 1479 1482
1605 1601 1598 1594 1590 1586 1581 1576 1571 1566 1561 1556 1551 1545 1540 1535 1530 1525 1521 1517 1513 1508 1504 1499 1495 1491 1488 1484 1481 1477 1474 1471 1469 1467 1465 1465 1464 1465 1466 1467 1468 1470 1474
1604 1600 1597 1593 1589 1584 1579 1574 1569 1564 1559 1554 1548 1543 1538 1533 1527 1522 1517 1512 1508 1503 1499 1495 1490 1486 1482 1479 1475 1472 1469 1466 1463 1460 1458 1457 1457 1457 1458 1459 1460 1461 1464
1603 1599 1595 1591 1587 1582 1577 1572 1567 1561 1556 1550 1545 1539 1534 1529 1524 1518 1513 1508 1503 1499 1494 1490 1486 1481 1477 1473 1469 1466 1463 1460 1457 1454 1452 1450 1449 1449 1450 1451 1452 1453 1455
1601 1597 1594 1589 1585 1580 1575 1570 1565 1559 1553 1548 1542 1536 1531 1525 1520 1515 1510 1505 1500 1495 1490 1486 1481 1476 1471 1467 1462 1459 1457 1454 1452 1449 1446 1444 1443 1442 1441 1442 1444 1445 1447
1599 1596 1592 1587 1583 1578 1573 1567 1562 1556 1550 1545 1539 1533 1527 1522 1517 1511 1506 1501 1496 1491 1487 1482 1477 1472 1466 1461 1456 1452 1450 1448 1446 1443 1440 1439 1438 1436 1434 1434 1436 1437 1439
1598 1594 1590 1586 1581 1575 1570 1564 1559 1553 1547 1542 1536 1530 1524 1519 1513 1508 1502 1498 1493 1487 1483 1478 1473 1469 1464 1458 1452 1447 1444 1442 1439 1437 1435 1434 1433 1430 1428 1428 1428 1429 1432
1597 1593 1589 1584 1578 1572 1566 1559 1553 1547 1542 1537 1532 1527 1521 1515 1509 1503 1498 1493 1488 1483 1479 1474 1470 1464 1460 1455 1448 1440 1436 1435 1433 1432 1431 1430 1428 1426 1424 1423 1422 1422 1424
1595 1591 1587 1582 1576 1570 1564 1557 1551 1545 1539 1533 1528 1523 1517 1511 1505 1499 1494 1488 1484 1479 1474 1470 1466 1461 1457 1454 1449 1441 1434 1429 1429 1427 1426 1425 1424 1422 1419 1418 1416 1416 1417
1593 1588 1584 1579 1574 1568 1561 1554 1548 1541 1534 1528 1521 1516 1512 1506 1501 1495 1489 1484 1479 1474 1469 1465 1462 1458 1453 1450 1449 1446 1441 1433 1425 1419 1421 1421 1419 1417 1415 1413 1412 1411 1411
1590 1586 1582 1578 1572 1566 1559 1552 1544 1537 1530 1524 1518 1512 1507 1502 1496 1490 1484 1479 1474 1469 1464 1461 1457 1454 1449 1445 1443 1442 1441 1437 1432 1420 1416 1416 1415 1413 1411 1410 1408 1407 1406
1588 1584 1580 1576 1570 1563 1556 1550 1543 1536 1529 1522 1515 1509 1502 1497 1491 1486 1480 1474 1469 1464 1459 1455 1451 1448 1445 1441 1438 1436 1435 1433 1430 1426 1415 1410 1410 1409 1407 1406 1403 1402 1401
1586 1583 1578 1573 1567 1560 1554 1547 1541 1533 1526 1519 1512 1505 1498 1492 1487 1482 1476 1470 1465 1459 1454 1449 1445 1442 1439 1436 1433 1431 1430 1429 1426 1423 1417 1410 1407 1404 1403 1401 1399 1398 1397